"startDT [UTC]","vpos","CH4 [ppm]","stdev(CH4) [ppm]","CO2 [ppm]","stdev(CO2) [ppm]","H2O [ppm]","stdev(H2O)","p_LGR [torr]","T_LGR [C]","mt1_LGR [us]","mt2_LGR [us]","T_ECpre [C]","T_EC1 [C]","T_EC2 [C]","p_inlet [hPa]","p_in [hPa]","p_out [hPa]","T_inlet [C]","RH_inlet [%]","dwpt_inlet [C]","T_vent [C]","RH_vent [%]","dwpt_vent [C]","flow_vent [l min-1]","flow_inlet [l min-1]","dwpt_sample [C]","T_room [C]"
2012-10-29 00:00:00,0.0,1.9247,0.0011,398.87,0.20,129.3,34.5,138.04,31.61,24.66,36.43,0.04,-272.74,-272.75,-43,565,-943,25.1,3.1,-22.7,25.3,3.1,-22.4,5.73,2.39,-25.2,30.5
2012-10-29 00:01:00,0.0,1.9269,0.0010,398.87,0.23,134.4,30.7,138.04,31.61,24.65,36.42,0.04,-272.75,-272.74,-43,565,-943,25.1,3.1,-22.6,25.3,3.1,-22.4,5.73,2.43,-25.2,30.5
2012-10-29 00:02:00,0.0,1.9261,0.0011,398.88,0.22,126.7,33.2,138.04,31.61,24.65,36.42,0.04,-272.75,-272.75,-43,565,-943,25.1,3.1,-22.7,25.3,3.2,-22.4,5.73,2.42,-25.2,30.5
2012-10-29 00:03:00,0.0,1.9268,0.0010,398.91,0.20,118.6,30.0,138.04,31.62,24.65,36.42,0.04,-272.74,-272.75,-43,566,-943,25.1,3.1,-22.6,25.3,3.2,-22.4,5.73,2.38,-25.2,30.4
2012-10-29 00:04:00,0.0,1.9268,0.0010,398.79,0.20,122.8,32.9,138.04,31.62,24.65,36.43,0.04,-272.74,-272.75,-43,566,-943,25.1,3.1,-22.6,25.3,3.2,-22.4,5.73,2.37,-25.2,30.4
2012-10-29 00:05:00,0.0,1.9270,0.0009,398.80,0.22,115.2,30.2,138.04,31.62,24.65,36.43,0.04,-272.74,-272.75,-43,566,-943,25.1,3.2,-22.5,25.3,3.2,-22.3,5.73,2.36,-25.3,30.4
2012-10-29 00:06:00,0.0,1.9269,0.0011,398.95,0.20,121.2,34.8,138.04,31.62,24.65,36.42,0.04,-272.75,-272.75,-43,565,-943,25.0,3.1,-22.6,25.3,3.2,-22.3,5.73,2.37,-25.3,30.4
2012-10-29 00:07:00,0.0,1.9270,0.0009,398.83,0.21,112.5,33.3,138.04,31.62,24.65,36.43,0.04,-272.75,-272.74,-43,565,-943,25.0,3.2,-22.5,25.2,3.2,-22.3,5.73,2.39,-25.4,30.4
2012-10-29 00:08:00,0.0,1.9273,0.0009,398.90,0.18,121.7,36.5,138.04,31.61,24.65,36.42,0.04,-272.74,-272.74,-43,565,-943,25.0,3.2,-22.5,25.2,3.2,-22.3,5.73,2.41,-25.4,30.3
2012-10-29 00:09:00,0.0,1.9269,0.0010,398.84,0.19,113.3,31.6,138.05,31.61,24.65,36.42,0.29,-270.69,-272.50,-43,565,-943,24.9,3.2,-22.5,25.2,3.2,-22.2,5.42,2.44,-29.8,30.3
2012-10-29 00:10:00,0.0,1.9276,0.0009,398.86,0.22,109.1,30.1,138.04,31.61,24.65,36.42,0.04,-272.74,-272.74,-43,565,-943,24.9,3.2,-22.5,25.2,3.2,-22.2,5.73,2.42,-25.4,30.3
2012-10-29 00:11:00,0.0,1.9281,0.0009,398.89,0.19,119.3,29.8,138.04,31.61,24.65,36.42,0.04,-272.75,-272.74,-43,565,-943,24.9,3.2,-22.4,25.2,3.2,-22.2,5.73,2.41,-25.4,30.3
2012-10-29 00:12:00,0.0,1.9279,0.0010,398.78,0.24,124.6,30.4,138.05,31.61,24.65,36.42,0.04,-272.74,-272.75,-43,565,-943,24.9,3.2,-22.4,25.2,3.2,-22.2,5.73,2.38,-25.5,30.3
2012-10-29 00:13:00,0.0,1.9283,0.0008,398.77,0.24,108.0,32.9,138.04,31.61,24.65,36.43,0.04,-272.75,-272.75,-43,565,-943,24.9,3.2,-22.4,25.1,3.2,-22.2,5.73,2.35,-25.5,30.3
2012-10-29 00:14:00,0.0,1.9286,0.0010,398.78,0.18,121.0,28.1,138.04,31.61,24.65,36.42,0.04,-272.74,-272.74,-43,565,-943,24.9,3.2,-22.4,25.1,3.2,-22.2,5.73,2.36,-25.5,30.3
2012-10-29 00:15:00,0.0,1.9291,0.0011,398.80,0.20,116.9,36.0,138.04,31.61,24.65,36.43,0.04,-272.74,-272.75,-43,565,-942,24.9,3.2,-22.5,25.2,3.2,-22.2,5.73,2.41,-25.4,30.4
2012-10-29 00:16:00,0.0,1.9291,0.0010,398.79,0.19,123.3,31.0,138.04,31.62,24.66,36.43,0.04,-272.74,-272.75,-43,565,-943,24.9,3.2,-22.5,25.2,3.2,-22.2,5.73,2.43,-25.4,30.4
2012-10-29 00:17:00,0.0,1.9293,0.0010,398.76,0.23,119.0,29.3,138.04,31.62,24.65,36.43,0.04,-272.74,-272.75,-43,565,-942,24.9,3.2,-22.5,25.2,3.2,-22.1,5.73,2.41,-25.3,30.4
2012-10-29 00:18:00,0.0,1.9300,0.0009,398.86,0.21,122.7,27.5,138.04,31.62,24.66,36.42,0.04,-272.75,-272.75,-43,565,-943,24.9,3.2,-22.5,25.2,3.2,-22.2,5.73,2.36,-25.3,30.4
2012-10-29 00:19:00,0.0,1.9304,0.0010,398.85,0.24,131.2,29.0,138.04,31.62,24.65,36.42,0.04,-272.74,-272.75,-43,565,-943,25.0,3.2,-22.4,25.2,3.2,-22.2,5.73,2.35,-25.2,30.5
2012-10-29 00:20:00,0.0,1.9305,0.0009,398.84,0.24,122.0,27.3,138.04,31.62,24.65,36.43,0.04,-272.75,-272.74,-43,565,-943,25.0,3.2,-22.4,25.3,3.2,-22.2,5.73,2.39,-25.2,30.5
2012-10-29 00:21:00,0.0,1.9309,0.0011,398.79,0.20,138.7,33.8,138.04,31.62,24.65,36.43,0.04,-272.74,-272.75,-43,565,-943,25.0,3.2,-22.4,25.3,3.2,-22.2,5.73,2.43,-25.2,30.5
2012-10-29 00:22:00,0.0,1.9310,0.0011,398.88,0.18,126.0,35.8,138.04,31.63,24.65,36.43,0.04,-272.75,-272.75,-43,565,-943,25.1,3.2,-22.5,25.3,3.2,-22.2,5.73,2.42,-25.1,30.5
2012-10-29 00:23:00,0.0,1.9311,0.0009,398.89,0.22,121.1,34.9,138.04,31.63,24.66,36.42,0.04,-272.75,-272.75,-43,565,-943,25.1,3.2,-22.4,25.3,3.2,-22.2,5.73,2.38,-25.1,30.4
2012-10-29 00:24:00,0.0,1.9313,0.0009,398.91,0.21,138.8,34.5,138.04,31.63,24.66,36.42,0.04,-272.74,-272.74,-43,565,-943,25.1,3.2,-22.4,25.3,3.2,-22.2,5.73,2.36,-25.1,30.4
2012-10-29 00:25:00,0.0,1.9319,0.0009,398.82,0.25,121.3,27.6,138.04,31.63,24.65,36.42,0.04,-272.75,-272.74,-43,565,-943,25.0,3.2,-22.4,25.3,3.2,-22.1,5.73,2.36,-25.2,30.4
2012-10-29 00:26:00,0.0,1.9325,0.0011,398.91,0.20,119.2,30.4,138.04,31.63,24.65,36.42,0.04,-272.75,-272.75,-43,565,-943,25.0,3.2,-22.4,25.2,3.2,-22.1,5.73,2.37,-25.2,30.4
2012-10-29 00:27:00,0.0,1.9327,0.0009,398.87,0.23,131.6,31.5,138.04,31.63,24.65,36.42,0.04,-272.75,-272.74,-43,565,-943,25.0,3.2,-22.4,25.2,3.2,-22.2,5.73,2.39,-25.2,30.4
2012-10-29 00:28:00,0.0,1.9326,0.0008,398.76,0.17,128.7,28.2,138.04,31.63,24.65,36.43,0.04,-272.74,-272.75,-43,565,-943,24.9,3.2,-22.4,25.2,3.3,-22.1,5.73,2.41,-25.3,30.3
2012-10-29 00:29:00,0.0,1.9326,0.0009,398.89,0.22,116.4,38.0,138.05,31.63,24.66,36.42,0.04,-272.75,-272.75,-43,565,-943,24.9,3.2,-22.4,25.2,3.3,-22.1,5.73,2.42,-25.3,30.3
2012-10-29 00:30:00,0.0,1.9327,0.0009,398.97,0.19,117.3,31.1,138.04,31.63,24.66,36.42,0.04,-272.75,-272.75,-43,565,-942,24.8,3.3,-22.3,25.1,3.3,-22.1,5.73,2.42,-25.4,30.3
2012-10-29 00:31:00,0.0,1.9335,0.0009,398.86,0.18,115.4,29.0,138.05,31.63,24.65,36.42,0.04,-272.75,-272.74,-43,565,-943,24.8,3.3,-22.3,25.1,3.3,-22.1,5.73,2.41,-25.4,30.3
2012-10-29 00:32:00,0.0,1.9334,0.0009,398.84,0.22,116.0,37.7,138.05,31.63,24.65,36.43,0.04,-272.75,-272.75,-43,565,-943,24.8,3.3,-22.3,25.1,3.3,-22.2,5.73,2.38,-25.3,30.3
2012-10-29 00:33:00,0.0,1.9335,0.0008,398.88,0.22,122.7,33.2,138.04,31.63,24.65,36.42,0.04,-272.74,-272.75,-43,565,-943,24.8,3.3,-22.3,25.1,3.3,-22.1,5.73,2.35,-25.3,30.4
2012-10-29 00:34:00,0.0,1.9336,0.0009,398.89,0.18,119.5,28.9,138.04,31.63,24.65,36.42,0.04,-272.75,-272.74,-43,565,-943,24.8,3.2,-22.4,25.1,3.3,-22.0,5.73,2.37,-25.2,30.4
2012-10-29 00:35:00,0.0,1.9339,0.0011,398.90,0.23,126.5,27.9,138.04,31.63,24.65,36.42,0.04,-272.75,-272.75,-42,565,-942,24.9,3.3,-22.3,25.2,3.3,-22.0,5.73,2.42,-25.2,30.4
2012-10-29 00:36:00,0.0,1.9343,0.0010,398.93,0.20,133.7,32.2,138.04,31.63,24.65,36.42,0.04,-272.75,-272.75,-42,565,-942,24.9,3.3,-22.3,25.2,3.3,-22.0,5.73,2.43,-25.1,30.4
2012-10-29 00:37:00,0.0,1.9338,0.0011,398.76,0.18,131.8,27.2,138.04,31.63,24.65,36.43,0.04,-272.74,-272.75,-43,565,-942,24.9,3.3,-22.3,25.2,3.3,-21.9,5.73,2.40,-25.1,30.4
2012-10-29 00:38:00,0.0,1.9342,0.0011,398.92,0.21,132.1,31.1,138.04,31.63,24.65,36.42,0.04,-272.75,-272.75,-43,565,-942,25.0,3.3,-22.2,25.2,3.3,-22.0,5.73,2.36,-25.1,30.4
2012-10-29 00:39:00,0.0,1.9326,0.0009,398.88,0.21,132.4,33.3,138.04,31.63,24.66,36.42,0.04,-272.75,-272.75,-43,565,-942,24.9,3.3,-22.2,25.2,3.3,-21.9,5.73,2.35,-25.1,30.4
2012-10-29 00:40:00,0.0,1.9333,0.0011,398.95,0.23,121.0,31.2,138.04,31.63,24.66,36.42,0.04,-272.74,-272.74,-43,565,-942,24.9,3.3,-22.1,25.2,3.3,-21.8,5.73,2.38,-25.1,30.3
2012-10-29 00:41:00,0.0,1.9335,0.0010,398.93,0.23,121.5,33.4,138.04,31.63,24.65,36.42,0.04,-272.75,-272.75,-43,565,-942,24.9,3.3,-22.1,25.2,3.3,-21.8,5.73,2.40,-25.2,30.3
2012-10-29 00:42:00,0.0,1.9342,0.0010,398.94,0.18,121.2,32.0,138.04,31.63,24.65,36.42,0.04,-272.74,-272.75,-43,565,-942,24.9,3.3,-22.0,25.1,3.3,-21.8,5.73,2.42,-25.2,30.4
2012-10-29 00:43:00,0.0,1.9339,0.0010,398.94,0.18,116.4,31.3,138.04,31.63,24.65,36.42,0.04,-272.75,-272.75,-43,565,-942,24.8,3.3,-22.1,25.1,3.4,-21.8,5.73,2.42,-25.2,30.4
2012-10-29 00:44:00,0.0,1.9342,0.0011,398.94,0.24,131.7,32.4,138.04,31.63,24.65,36.42,0.04,-272.74,-272.75,-43,565,-942,24.9,3.4,-22.0,25.1,3.4,-21.7,5.73,2.39,-25.2,30.4
2012-10-29 00:45:00,0.0,1.9340,0.0010,399.03,0.22,121.9,35.8,138.04,31.63,24.65,36.41,0.04,-272.75,-272.74,-42,565,-942,24.9,3.3,-22.0,25.1,3.4,-21.7,5.73,2.35,-25.1,30.4
2012-10-29 00:46:00,0.0,1.9342,0.0010,398.95,0.22,123.6,30.2,138.04,31.63,24.65,36.42,0.04,-272.75,-272.75,-42,565,-942,24.9,3.3,-22.0,25.2,3.4,-21.7,5.73,2.36,-25.1,30.4
2012-10-29 00:47:00,0.0,1.9341,0.0010,398.97,0.21,138.4,32.2,138.04,31.63,24.65,36.42,0.04,-272.75,-272.74,-43,565,-942,24.9,3.3,-22.0,25.2,3.4,-21.7,5.73,2.41,-25.1,30.4
2012-10-29 00:48:00,0.0,1.9336,0.0009,398.98,0.20,139.2,31.0,138.04,31.64,24.66,36.42,0.04,-272.75,-272.75,-43,565,-942,25.0,3.3,-22.0,25.2,3.4,-21.7,5.73,2.43,-25.0,30.5
2012-10-29 00:49:00,0.0,1.9335,0.0009,399.00,0.23,130.4,32.3,138.04,31.64,24.65,36.42,0.04,-272.74,-272.75,-43,565,-942,25.0,3.3,-21.9,25.2,3.4,-21.7,5.73,2.40,-25.0,30.5
2012-10-29 00:50:00,0.0,1.9328,0.0012,398.99,0.22,140.5,34.2,138.04,31.64,24.66,36.42,0.04,-272.75,-272.75,-43,565,-942,25.0,3.3,-21.9,25.3,3.4,-21.6,5.73,2.35,-24.9,30.5
2012-10-29 00:51:00,0.0,1.9330,0.0009,398.88,0.20,135.5,33.7,138.04,31.65,24.66,36.43,0.04,-272.74,-272.75,-43,565,-942,25.1,3.3,-21.9,25.3,3.4,-21.6,5.73,2.35,-24.9,30.5
2012-10-29 00:52:00,0.0,1.9322,0.0012,399.05,0.18,142.8,34.0,138.04,31.65,24.66,36.42,0.04,-272.75,-272.75,-43,565,-942,25.1,3.3,-21.9,25.3,3.4,-21.6,5.73,2.40,-24.9,30.6
2012-10-29 00:53:00,0.0,1.9327,0.0011,399.07,0.19,144.2,30.3,138.04,31.66,24.65,36.42,0.04,-272.74,-272.75,-43,565,-942,25.1,3.3,-21.8,25.3,3.4,-21.6,5.73,2.44,-24.8,30.6
2012-10-29 00:54:00,0.0,1.9334,0.0011,399.06,0.18,144.9,30.7,138.04,31.66,24.65,36.42,0.04,-272.74,-272.75,-43,565,-942,25.2,3.3,-21.8,25.3,3.4,-21.6,5.73,2.41,-24.8,30.6
2012-10-29 00:55:00,0.0,1.9321,0.0010,398.98,0.19,138.7,32.5,138.04,31.66,24.65,36.42,0.04,-272.74,-272.75,-43,566,-942,25.2,3.3,-21.8,25.3,3.4,-21.6,5.73,2.36,-24.8,30.6
2012-10-29 00:56:00,0.0,1.9322,0.0012,399.09,0.22,145.2,28.9,138.04,31.66,24.65,36.42,0.04,-272.75,-272.75,-43,566,-943,25.2,3.4,-21.7,25.3,3.4,-21.5,5.73,2.35,-24.8,30.6
2012-10-29 00:57:00,0.0,1.9317,0.0013,398.93,0.20,140.4,30.2,138.04,31.66,24.65,36.43,0.04,-272.75,-272.75,-43,566,-942,25.1,3.4,-21.7,25.3,3.4,-21.5,5.73,2.37,-24.8,30.5
2012-10-29 00:58:00,0.0,1.9326,0.0012,399.01,0.21,139.0,38.0,138.04,31.66,24.65,36.42,0.04,-272.74,-272.75,-43,566,-942,25.1,3.4,-21.7,25.3,3.4,-21.5,5.73,2.40,-24.9,30.5
2012-10-29 00:59:00,0.0,1.9321,0.0010,399.04,0.23,140.2,28.4,138.04,31.66,24.66,36.41,0.04,-272.75,-272.75,-43,566,-943,25.1,3.4,-21.7,25.3,3.4,-21.4,5.73,2.41,-24.9,30.5
2012-10-29 01:00:00,0.0,1.9322,0.0011,398.91,0.18,138.8,35.1,138.04,31.66,24.65,36.43,0.04,-272.75,-272.74,-43,566,-942,25.0,3.4,-21.7,25.3,3.4,-21.5,5.73,2.42,-25.0,30.4
2012-10-29 01:01:00,0.0,1.9321,0.0011,398.96,0.20,131.3,34.4,138.04,31.66,24.65,36.43,0.04,-272.74,-272.75,-43,566,-942,25.0,3.4,-21.6,25.2,3.5,-21.4,5.73,2.41,-25.0,30.4
2012-10-29 01:02:00,0.0,1.9304,0.0010,398.99,0.18,134.8,32.1,138.05,31.65,24.66,36.42,0.04,-272.75,-272.75,-43,565,-942,25.0,3.4,-21.7,25.2,3.5,-21.4,5.73,2.39,-25.0,30.4
2012-10-29 01:03:00,0.0,1.9308,0.0009,398.97,0.24,129.7,35.2,138.05,31.65,24.65,36.42,0.04,-272.75,-272.75,-43,566,-942,24.9,3.5,-21.6,25.2,3.5,-21.4,5.73,2.36,-25.1,30.4
2012-10-29 01:04:00,0.0,1.9302,0.0010,399.00,0.20,125.3,32.2,138.05,31.65,24.66,36.42,0.04,-272.74,-272.75,-43,565,-942,24.9,3.5,-21.6,25.2,3.5,-21.3,5.73,2.36,-25.1,30.3
2012-10-29 01:05:00,0.0,1.9299,0.0009,398.98,0.18,133.3,29.6,138.05,31.65,24.65,36.42,0.04,-272.75,-272.74,-43,565,-942,24.9,3.5,-21.6,25.2,3.5,-21.3,5.73,2.37,-25.1,30.4
2012-10-29 01:06:00,0.0,1.9291,0.0009,398.96,0.23,123.4,28.4,138.04,31.65,24.65,36.42,0.04,-272.75,-272.75,-43,565,-942,24.9,3.5,-21.5,25.2,3.5,-21.3,5.73,2.41,-25.1,30.4
2012-10-29 01:07:00,0.0,1.9300,0.0008,398.85,0.22,139.6,30.8,138.04,31.65,24.65,36.43,0.04,-272.74,-272.74,-43,565,-942,24.9,3.5,-21.5,25.2,3.5,-21.2,5.73,2.43,-25.1,30.4
2012-10-29 01:08:00,0.0,1.9292,0.0012,398.98,0.22,136.9,30.7,138.04,31.65,24.65,36.42,0.04,-272.74,-272.75,-43,565,-942,24.9,3.5,-21.4,25.2,3.5,-21.2,5.73,2.40,-25.0,30.4
2012-10-29 01:09:00,0.0,1.9274,0.0010,399.01,0.18,135.8,30.7,138.04,31.65,24.66,36.42,0.04,-272.75,-272.75,-43,565,-942,25.0,3.5,-21.4,25.2,3.5,-21.2,5.73,2.35,-25.0,30.5
2012-10-29 01:10:00,0.0,1.9275,0.0010,398.96,0.21,142.8,32.2,138.04,31.65,24.65,36.42,0.04,-272.75,-272.75,-43,565,-942,25.0,3.5,-21.4,25.3,3.5,-21.1,5.73,2.34,-24.9,30.5
2012-10-29 01:11:00,0.0,1.9268,0.0013,399.04,0.20,145.0,32.8,138.04,31.65,24.65,36.42,0.04,-272.74,-272.74,-43,565,-942,25.0,3.5,-21.4,25.3,3.5,-21.1,5.73,2.40,-24.9,30.5
2012-10-29 01:12:00,0.0,1.9265,0.0011,399.05,0.23,152.8,40.8,138.04,31.65,24.65,36.41,0.04,-272.75,-272.75,-43,565,-942,25.1,3.5,-21.3,25.3,3.6,-21.0,5.73,2.44,-24.8,30.5
2012-10-29 01:13:00,0.0,1.9273,0.0011,399.02,0.22,146.3,36.8,138.04,31.65,24.65,36.42,0.04,-272.74,-272.75,-43,566,-942,25.1,3.5,-21.2,25.3,3.6,-21.0,5.73,2.40,-24.8,30.5
2012-10-29 01:14:00,0.0,1.9285,0.0011,398.96,0.22,150.3,31.5,138.04,31.66,24.65,36.42,0.04,-272.75,-272.75,-43,566,-942,25.1,3.5,-21.2,25.3,3.6,-21.0,5.73,2.34,-24.8,30.6
2012-10-29 01:15:00,0.0,1.9289,0.0010,398.96,0.24,147.9,34.1,138.04,31.66,24.65,36.43,0.04,-272.74,-272.75,-43,566,-942,25.2,3.5,-21.2,25.4,3.6,-20.9,5.73,2.35,-24.7,30.6
2012-10-29 01:16:00,0.0,1.9284,0.0010,399.00,0.25,150.1,29.7,138.04,31.66,24.65,36.42,0.04,-272.75,-272.75,-43,566,-942,25.2,3.5,-21.2,25.4,3.6,-20.9,5.73,2.40,-24.7,30.6
2012-10-29 01:17:00,0.0,1.9281,0.0009,399.07,0.22,156.6,35.6,138.04,31.66,24.66,36.42,0.04,-272.75,-272.75,-43,566,-942,25.2,3.5,-21.1,25.4,3.6,-20.9,5.73,2.43,-24.6,30.6
2012-10-29 01:18:00,0.0,1.9290,0.0011,399.13,0.22,163.0,35.7,138.04,31.67,24.65,36.41,0.04,-272.74,-272.74,-43,566,-942,25.3,3.5,-21.1,25.5,3.6,-20.9,5.73,2.39,-24.6,30.7
2012-10-29 01:19:00,0.0,1.9286,0.0011,399.13,0.23,159.5,32.7,138.04,31.67,24.66,36.42,0.04,-272.75,-272.75,-43,566,-942,25.3,3.5,-21.1,25.5,3.6,-20.8,5.73,2.34,-24.6,30.7
2012-10-29 01:20:00,0.0,1.9293,0.0010,399.15,0.22,155.6,34.4,138.04,31.67,24.65,36.42,0.04,-272.75,-272.75,-43,566,-942,25.3,3.5,-21.1,25.5,3.6,-20.8,5.73,2.36,-24.6,30.6
2012-10-29 01:21:00,0.0,1.9299,0.0012,399.17,0.23,163.2,28.9,138.04,31.68,24.66,36.41,0.04,-272.74,-272.75,-43,566,-942,25.3,3.5,-21.1,25.5,3.6,-20.8,5.73,2.39,-24.7,30.6
2012-10-29 01:22:00,0.0,1.9296,0.0011,399.10,0.18,156.7,27.4,138.04,31.67,24.66,36.42,0.04,-272.75,-272.75,-43,566,-942,25.2,3.6,-21.1,25.4,3.6,-20.8,5.73,2.41,-24.7,30.6
2012-10-29 01:23:00,0.0,1.9298,0.0012,399.03,0.18,147.9,33.1,138.04,31.67,24.65,36.43,0.04,-272.75,-272.75,-43,566,-942,25.2,3.6,-21.1,25.4,3.6,-20.8,5.73,2.42,-24.8,30.5
2012-10-29 01:24:00,0.0,1.9298,0.0010,399.07,0.22,142.9,33.1,138.04,31.67,24.66,36.42,0.04,-272.74,-272.75,-43,566,-942,25.1,3.6,-21.1,25.3,3.6,-20.9,5.73,2.41,-24.8,30.5
2012-10-29 01:25:00,0.0,1.9295,0.0013,399.08,0.21,149.0,37.5,138.04,31.67,24.65,36.42,0.04,-272.74,-272.75,-43,566,-942,25.1,3.6,-21.1,25.4,3.6,-20.9,5.73,2.38,-24.8,30.5
2012-10-29 01:26:00,0.0,1.9304,0.0011,399.06,0.24,145.5,31.3,138.04,31.67,24.65,36.42,0.04,-272.75,-272.75,-43,566,-942,25.1,3.6,-21.1,25.3,3.6,-20.9,5.73,2.36,-24.8,30.4
2012-10-29 01:27:00,0.0,1.9298,0.0013,399.06,0.19,142.4,28.3,138.04,31.66,24.65,36.42,0.04,-272.74,-272.75,-43,566,-942,25.0,3.6,-21.1,25.3,3.6,-20.9,5.73,2.35,-24.9,30.4
2012-10-29 01:28:00,0.0,1.9272,0.0013,399.08,0.23,142.2,35.4,138.04,31.66,24.65,36.42,0.04,-272.74,-272.75,-43,566,-942,25.0,3.6,-21.1,25.3,3.6,-20.8,5.73,2.39,-24.9,30.5
2012-10-29 01:29:00,0.0,1.9299,0.0011,399.14,0.20,142.1,30.1,138.04,31.66,24.65,36.41,0.04,-272.75,-272.75,-43,566,-942,25.0,3.6,-21.1,25.3,3.6,-20.8,5.73,2.43,-24.9,30.5
2012-10-29 01:30:00,0.0,1.9304,0.0009,399.17,0.21,135.6,35.5,138.04,31.67,24.65,36.42,0.04,-272.75,-272.75,-43,566,-942,25.0,3.6,-21.1,25.3,3.6,-20.8,5.73,2.42,-24.8,30.5
2012-10-29 01:31:00,0.0,1.9301,0.0009,399.03,0.22,143.8,29.4,138.04,31.67,24.65,36.43,0.04,-272.75,-272.74,-43,566,-942,25.0,3.6,-21.1,25.3,3.6,-20.8,5.73,2.36,-24.8,30.5
2012-10-29 01:32:00,0.0,1.9296,0.0011,399.07,0.19,148.3,31.2,138.04,31.67,24.65,36.42,0.04,-272.75,-272.75,-43,566,-942,25.1,3.6,-21.1,25.3,3.6,-20.8,5.73,2.34,-24.8,30.5
2012-10-29 01:33:00,0.0,1.9306,0.0012,399.14,0.23,149.0,33.6,138.04,31.67,24.65,36.42,0.04,-272.75,-272.75,-43,566,-942,25.1,3.6,-21.1,25.4,3.6,-20.7,5.73,2.38,-24.7,30.5
2012-10-29 01:34:00,0.0,1.9297,0.0011,399.14,0.20,145.3,30.4,138.04,31.67,24.65,36.42,0.04,-272.74,-272.75,-43,566,-942,25.1,3.6,-21.1,25.4,3.6,-20.8,5.73,2.43,-24.7,30.6
2012-10-29 01:35:00,0.0,1.9298,0.0012,399.10,0.28,156.2,34.1,138.04,31.67,24.65,36.43,0.04,-272.75,-272.74,-43,566,-942,25.1,3.6,-21.0,25.4,3.6,-20.7,5.73,2.42,-24.7,30.6
2012-10-29 01:36:00,0.0,1.9303,0.0010,399.18,0.17,154.1,33.1,138.04,31.67,24.65,36.42,0.04,-272.75,-272.75,-43,566,-942,25.2,3.6,-21.0,25.4,3.6,-20.7,5.73,2.36,-24.6,30.6
2012-10-29 01:37:00,0.0,1.9307,0.0009,399.15,0.17,150.4,32.1,138.04,31.67,24.65,36.43,0.04,-272.75,-272.75,-43,566,-942,25.2,3.6,-21.0,25.4,3.6,-20.7,5.73,2.35,-24.6,30.6
2012-10-29 01:38:00,0.0,1.9297,0.0010,399.22,0.21,156.3,31.9,138.04,31.67,24.66,36.42,0.04,-272.74,-272.75,-43,566,-942,25.1,3.6,-20.9,25.4,3.6,-20.7,5.73,2.37,-24.7,30.5
2012-10-29 01:39:00,0.0,1.9292,0.0011,399.23,0.15,160.4,38.2,138.04,31.67,24.65,36.42,0.04,-272.75,-272.75,-43,566,-942,25.1,3.6,-20.9,25.4,3.6,-20.7,5.73,2.41,-24.7,30.4
2012-10-29 01:40:00,0.0,1.9295,0.0009,399.19,0.17,151.9,28.7,138.04,31.68,24.65,36.42,0.04,-272.74,-272.75,-43,566,-942,25.1,3.6,-20.9,25.3,3.6,-20.7,5.73,2.42,-24.7,30.4
2012-10-29 01:41:00,0.0,1.9278,0.0013,399.11,0.25,157.9,30.1,138.04,31.68,24.65,36.42,0.04,-272.75,-272.75,-43,566,-942,25.0,3.7,-20.9,25.3,3.7,-20.6,5.73,2.41,-24.7,30.5
2012-10-29 01:42:00,0.0,1.9280,0.0009,399.08,0.28,151.8,30.5,138.04,31.67,24.65,36.43,0.04,-272.75,-272.74,-43,566,-942,25.0,3.7,-20.8,25.3,3.7,-20.5,5.73,2.38,-24.7,30.5
2012-10-29 01:43:00,0.0,1.9298,0.0013,399.39,0.21,144.4,31.3,138.04,31.67,24.66,36.42,0.04,-272.75,-272.75,-43,566,-942,25.0,3.7,-20.8,25.3,3.7,-20.6,5.73,2.35,-24.8,30.4
2012-10-29 01:44:00,0.0,1.9273,0.0010,399.17,0.21,148.1,35.2,138.04,31.67,24.66,36.42,0.04,-272.75,-272.75,-43,566,-942,25.0,3.7,-20.8,25.3,3.7,-20.5,5.73,2.36,-24.8,30.4
2012-10-29 01:45:00,0.0,1.9279,0.0010,399.15,0.17,143.1,32.2,138.04,31.66,24.66,36.42,0.04,-272.75,-272.75,-43,566,-942,24.9,3.7,-20.7,25.2,3.7,-20.5,5.73,2.39,-24.8,30.4
2012-10-29 01:46:00,0.0,1.9271,0.0012,399.17,0.24,144.6,35.3,138.04,31.66,24.65,36.41,0.04,-272.74,-272.75,-43,566,-942,24.9,3.7,-20.8,25.2,3.7,-20.5,5.73,2.43,-24.8,30.4
2012-10-29 01:47:00,0.0,1.9285,0.0010,399.21,0.19,145.0,30.4,138.04,31.66,24.66,36.43,0.04,-272.75,-272.75,-43,565,-941,24.9,3.7,-20.7,25.2,3.7,-20.5,5.73,2.43,-24.8,30.4
2012-10-29 01:48:00,0.0,1.9295,0.0010,399.25,0.22,148.6,30.7,138.04,31.66,24.65,36.43,0.04,-272.74,-272.74,-43,566,-941,24.9,3.7,-20.8,25.2,3.7,-20.5,5.73,2.37,-24.8,30.4
2012-10-29 01:49:00,0.0,1.9294,0.0011,399.29,0.25,153.0,36.5,138.04,31.66,24.65,36.43,0.04,-272.75,-272.75,-43,565,-941,24.9,3.7,-20.8,25.2,3.7,-20.6,5.73,2.34,-24.8,30.5
2012-10-29 01:50:00,0.0,1.9287,0.0011,399.23,0.20,149.6,30.2,138.04,31.66,24.66,36.43,0.04,-272.75,-272.75,-43,565,-942,25.0,3.7,-20.8,25.3,3.7,-20.6,5.73,2.37,-24.7,30.5
2012-10-29 01:51:00,0.0,1.9301,0.0010,399.27,0.22,153.5,31.5,138.04,31.67,24.65,36.43,0.04,-272.74,-272.75,-43,565,-942,25.0,3.7,-20.8,25.3,3.7,-20.6,5.73,2.43,-24.7,30.5
2012-10-29 01:52:00,0.0,1.9284,0.0011,399.22,0.21,165.4,30.2,138.04,31.67,24.66,36.42,0.04,-272.75,-272.75,-43,566,-942,25.0,3.7,-20.9,25.3,3.7,-20.6,5.73,2.42,-24.6,30.5
2012-10-29 01:53:00,0.0,1.9281,0.0012,399.18,0.23,161.3,31.8,138.04,31.67,24.66,36.42,0.04,-272.74,-272.75,-43,566,-941,25.1,3.7,-20.8,25.3,3.7,-20.5,5.73,2.37,-24.6,30.5
2012-10-29 01:54:00,0.0,1.9291,0.0010,399.08,0.18,161.8,31.9,138.04,31.67,24.65,36.43,0.04,-272.75,-272.75,-43,566,-942,25.1,3.7,-20.8,25.3,3.7,-20.5,5.73,2.33,-24.6,30.5
2012-10-29 01:55:00,0.0,1.9279,0.0012,399.13,0.20,157.0,34.0,138.04,31.67,24.65,36.42,0.04,-272.74,-272.75,-43,566,-941,25.1,3.7,-20.8,25.3,3.7,-20.5,5.73,2.38,-24.6,30.4
2012-10-29 01:56:00,0.0,1.9288,0.0012,399.15,0.26,158.5,37.2,138.04,31.68,24.65,36.41,0.04,-272.75,-272.74,-43,566,-942,25.0,3.7,-20.7,25.3,3.7,-20.5,5.73,2.41,-24.6,30.4
2012-10-29 01:57:00,0.0,1.9297,0.0010,399.08,0.20,159.9,29.9,138.04,31.68,24.65,36.42,0.04,-272.75,-272.75,-43,566,-942,25.0,3.7,-20.8,25.3,3.7,-20.5,5.73,2.42,-24.6,30.4
2012-10-29 01:58:00,0.0,1.9280,0.0011,398.92,0.20,157.9,28.9,138.04,31.67,24.66,36.43,0.04,-272.74,-272.74,-43,566,-942,25.0,3.7,-20.8,25.3,3.7,-20.5,5.73,2.41,-24.7,30.3
2012-10-29 01:59:00,0.0,1.9286,0.0015,398.95,0.21,153.9,31.3,138.04,31.67,24.65,36.42,0.04,-272.75,-272.75,-43,566,-941,25.0,3.7,-20.7,25.3,3.7,-20.5,5.73,2.38,-24.7,30.3
2012-10-29 02:00:00,0.0,1.9292,0.0008,399.05,0.22,151.3,29.4,138.04,31.67,24.66,36.42,0.04,-272.75,-272.75,-43,566,-941,25.0,3.7,-20.7,25.2,3.7,-20.5,5.73,2.36,-24.7,30.3
2012-10-29 02:01:00,0.0,1.9291,0.0009,399.01,0.21,142.7,29.5,138.05,31.67,24.65,36.42,0.04,-272.74,-272.74,-43,566,-941,24.9,3.7,-20.7,25.2,3.8,-20.5,5.73,2.36,-24.7,30.3
2012-10-29 02:02:00,0.0,1.9299,0.0009,399.10,0.19,149.0,28.6,138.04,31.67,24.65,36.42,0.04,-272.74,-272.75,-43,566,-942,24.9,3.7,-20.7,25.2,3.8,-20.4,5.73,2.38,-24.7,30.4
2012-10-29 02:03:00,0.0,1.9297,0.0009,399.03,0.18,155.3,27.4,138.04,31.67,24.66,36.43,0.04,-272.75,-272.75,-42,565,-941,24.9,3.7,-20.7,25.2,3.8,-20.4,5.73,2.42,-24.7,30.4
2012-10-29 02:04:00,0.0,1.9295,0.0010,399.07,0.19,154.2,35.1,138.04,31.67,24.66,36.42,0.04,-272.74,-272.75,-43,565,-941,24.9,3.8,-20.7,25.2,3.8,-20.4,5.73,2.43,-24.7,30.4
2012-10-29 02:05:00,0.0,1.9282,0.0012,398.90,0.20,160.9,27.8,138.04,31.67,24.65,36.42,0.04,-272.74,-272.74,-43,565,-941,25.0,3.8,-20.6,25.2,3.8,-20.4,5.73,2.37,-24.6,30.4
2012-10-29 02:06:00,0.0,1.9289,0.0009,399.07,0.24,164.1,34.1,138.04,31.67,24.66,36.42,0.04,-272.75,-272.75,-43,565,-941,25.0,3.8,-20.6,25.3,3.8,-20.4,5.73,2.33,-24.6,30.5
2012-10-29 02:07:00,0.0,1.9280,0.0016,399.09,0.21,170.0,32.1,138.04,31.67,24.65,36.41,0.04,-272.75,-272.75,-43,566,-941,25.0,3.8,-20.6,25.3,3.8,-20.4,5.73,2.37,-24.6,30.5
2012-10-29 02:08:00,0.0,1.9282,0.0011,399.02,0.22,167.1,35.1,138.04,31.67,24.66,36.42,0.04,-272.75,-272.74,-43,565,-942,25.0,3.8,-20.6,25.3,3.8,-20.3,5.73,2.42,-24.5,30.5
2012-10-29 02:09:00,0.0,1.9272,0.0011,398.83,0.25,164.7,30.8,138.04,31.67,24.65,36.43,0.04,-272.75,-272.75,-43,566,-942,25.1,3.8,-20.5,25.3,3.8,-20.3,5.73,2.42,-24.5,30.5
2012-10-29 02:10:00,0.0,1.9284,0.0009,398.99,0.20,163.2,29.9,138.04,31.68,24.65,36.42,0.04,-272.75,-272.75,-43,566,-941,25.1,3.7,-20.5,25.3,3.8,-20.3,5.73,2.36,-24.4,30.5
2012-10-29 02:11:00,0.0,1.9260,0.0011,398.88,0.22,177.1,33.9,138.04,31.68,24.65,36.42,0.04,-272.75,-272.74,-43,566,-942,25.1,3.8,-20.5,25.4,3.8,-20.3,5.73,2.33,-24.4,30.5
2012-10-29 02:12:00,0.0,1.9262,0.0010,398.82,0.21,164.1,34.7,138.04,31.68,24.66,36.43,0.04,-272.74,-272.75,-43,566,-941,25.2,3.8,-20.4,25.4,3.8,-20.1,5.73,2.39,-24.4,30.6
2012-10-29 02:13:00,0.0,1.9282,0.0011,398.93,0.22,170.4,23.9,138.04,31.69,24.65,36.42,0.04,-272.75,-272.75,-43,566,-942,25.2,3.8,-20.4,25.4,3.8,-20.1,5.73,2.43,-24.4,30.5
2012-10-29 02:14:00,0.0,1.9280,0.0010,398.90,0.23,176.4,28.9,138.04,31.69,24.66,36.43,0.04,-272.74,-272.75,-43,566,-942,25.1,3.8,-20.4,25.4,3.8,-20.2,5.73,2.41,-24.4,30.5
2012-10-29 02:15:00,0.0,1.9277,0.0010,398.93,0.24,171.8,31.5,138.04,31.69,24.66,36.42,0.04,-272.74,-272.74,-43,566,-941,25.1,3.8,-20.4,25.3,3.8,-20.1,5.73,2.37,-24.4,30.5
2012-10-29 02:16:00,0.0,1.9278,0.0008,398.85,0.23,168.8,32.6,138.04,31.69,24.66,36.42,0.04,-272.75,-272.75,-43,566,-942,25.1,3.8,-20.4,25.3,3.8,-20.1,5.73,2.35,-24.5,30.4